GFSNW_sfc_rhum_276.txt.gz
RH
58 63 65 69 73 82 88 90 98 79 89 92 98 98 76 68 62 55 61 50 36 39 42 41 41 44 41 36 37 44 50 52 58 46 38 42 52 59 73 80 72 91 89 74
60 60 64 67 74 78 99 100 97 91 65 94 99 89 78 67 63 62 60 48 48 40 42 45 42 49 54 47 41 52 48 62 68 50 45 39 52 68 65 70 83 95 81 65
66 58 60 60 70 70 98 100 99 95 98 82 74 69 69 70 56 58 55 56 49 40 49 60 62 51 56 55 50 57 53 57 53 60 49 51 43 71 67 62 87 80 78 48
69 59 56 60 64 80 98 100 97 84 99 98 68 65 52 57 59 57 57 53 52 43 69 67 61 62 57 51 59 59 52 59 54 51 50 38 39 63 67 51 53 53 46 58
67 67 58 58 62 83 99 100 100 98 88 98 78 68 69 57 51 62 56 60 51 46 50 51 66 57 57 50 52 60 60 74 60 77 51 44 41 49 60 52 59 61 64 70
72 68 61 59 62 87 100 100 98 100 87 89 91 86 69 65 57 56 56 50 54 54 47 47 50 53 52 49 52 64 61 75 74 77 59 48 61 46 58 53 51 44 52 42
69 71 71 60 59 79 99 100 100 99 96 98 84 76 75 70 62 58 56 56 65 54 55 54 55 58 58 56 64 62 69 67 77 87 57 71 51 39 38 42 46 44 42 41
70 70 71 70 61 68 99 99 100 100 98 94 86 85 77 71 61 63 59 50 56 52 54 79 82 85 74 75 64 66 64 76 96 76 79 44 31 38 44 45 40 39 37 39
70 73 73 74 70 62 96 98 99 100 99 86 87 94 80 85 88 76 66 55 57 61 75 88 86 88 75 82 75 72 66 69 75 94 67 52 32 45 39 31 47 34 34 38
70 72 74 73 71 69 91 99 98 100 99 87 84 90 99 84 78 84 73 67 74 60 93 94 91 86 65 79 75 86 83 89 78 99 85 63 41 44 39 48 42 42 34 36
69 70 70 74 72 71 91 98 96 98 100 94 78 85 96 93 88 95 83 78 83 93 87 92 88 94 80 72 70 77 78 83 90 90 87 56 43 41 44 48 49 52 44 49
71 70 70 68 74 75 83 100 95 92 100 95 90 92 80 68 78 92 95 95 83 85 93 96 96 93 93 76 91 70 79 72 82 68 69 51 52 50 48 49 48 50 48 52
72 72 71 71 71 75 82 99 96 99 100 98 98 83 62 69 67 62 97 94 82 90 86 96 96 80 78 79 72 71 69 67 72 67 55 60 59 57 55 50 50 44 47 51
67 70 71 73 72 73 78 99 98 95 97 99 86 66 78 64 60 68 68 66 67 84 97 99 98 92 73 76 61 68 68 63 72 71 57 53 49 54 53 50 47 49 50 54
65 66 68 71 72 72 86 98 95 84 92 96 95 76 62 55 62 70 71 73 77 96 100 100 97 87 86 92 78 68 70 72 70 77 52 50 46 42 57 52 51 54 54 56
63 65 67 69 71 75 100 100 99 86 92 96 96 78 77 72 65 66 76 81 86 94 100 100 96 85 88 92 79 52 57 59 51 50 50 48 46 50 53 51 52 58 54 48
67 67 68 69 72 91 100 98 95 78 90 99 97 93 70 68 66 89 88 83 94 96 98 100 98 90 95 99 86 56 54 51 54 46 52 58 53 46 50 48 48 62 55 51
68 68 70 70 73 79 99 98 84 74 98 98 98 94 87 79 96 97 96 98 95 96 93 99 100 97 99 99 78 55 55 51 54 52 51 46 44 52 49 53 56 58 60 59
71 70 71 85 96 100 100 82 79 95 93 97 96 97 87 81 98 97 99 99 98 94 94 97 99 98 97 86 74 61 54 58 53 53 53 53 50 49 53 56 51 48 61 65
78 85 100 99 99 93 91 99 99 99 99 100 98 92 93 92 98 97 100 98 93 97 90 99 98 79 67 71 66 57 52 48 48 55 58 62 61 56 57 56 48 43 52 59
100 99 99 100 93 99 99 98 96 98 98 98 95 91 81 86 86 92 97 97 97 100 87 95 86 80 71 76 71 65 61 54 48 41 45 49 50 55 61 64 62 57 59 63
94 96 99 100 99 98 96 96 99 96 93 94 97 87 80 82 95 95 97 88 97 89 88 90 90 61 58 55 63 57 60 60 54 50 49 55 52 52 56 62 67 68 63 72
97 98 98 97 97 97 95 100 98 99 91 95 93 96 91 91 97 94 98 96 87 96 98 94 73 52 68 65 63 61 57 59 57 56 54 61 61 60 64 64 72 77 81 80
98 96 96 93 99 92 87 77 77 81 85 84 76 98 92 96 95 90 90 70 87 95 100 75 89 72 66 68 64 62 61 66 63 62 66 71 71 74 75 78 84 81 83 85
94 89 96 98 83 88 80 73 70 83 75 82 88 93 92 97 92 92 80 86 74 88 86 57 50 66 68 72 70 65 61 61 60 57 71 81 83 80 80 87 86 83 85 83
88 92 96 96 92 99 97 90 72 83 83 86 90 91 98 83 75 82 81 62 53 88 93 78 70 60 65 65 67 65 62 68 71 72 74 76 82 81 76 84 89 86 84 84
88 94 98 93 91 93 90 85 70 82 72 85 92 91 78 92 96 62 60 62 83 82 81 81 63 56 60 68 70 71 72 73 74 75 76 73 79 88 89 90 92 90 87 85

GFSNW_sfc_rhum_279.txt.gz
RH
70 65 58 64 69 73 81 97 99 72 82 90 90 89 72 67 60 53 61 48 33 37 41 38 38 38 33 37 36 36 36 41 40 32 30 36 41 48 49 82 77 74 71 64
66 69 58 63 63 70 98 100 98 84 73 97 98 89 76 66 58 56 52 46 39 35 43 44 39 42 45 47 42 46 43 49 50 36 31 36 40 52 49 55 65 82 75 57
71 66 61 58 60 75 96 100 100 94 96 67 66 70 68 68 53 53 50 52 48 41 43 52 54 47 46 45 40 56 50 43 40 45 36 37 40 53 48 38 56 52 52 28
72 66 67 56 59 79 96 100 99 80 96 98 64 62 50 61 54 55 49 46 50 40 70 56 51 51 49 50 58 48 48 46 39 36 38 33 35 48 46 33 36 33 28 30
73 68 69 59 57 69 100 100 100 99 83 88 83 65 61 46 45 54 51 57 45 52 48 46 62 51 48 49 41 47 44 66 50 74 42 31 33 40 44 37 36 30 35 38
69 73 72 65 58 84 100 99 98 99 94 81 86 82 68 57 50 48 56 52 54 53 44 42 45 46 50 48 49 50 49 67 65 65 44 37 52 37 45 41 34 32 34 22
68 70 72 72 61 81 97 99 100 97 90 90 90 76 71 66 58 58 52 53 55 52 53 52 52 53 52 50 59 52 53 55 61 78 46 70 40 30 30 38 37 32 28 27
71 72 74 75 71 77 96 97 98 96 94 82 77 89 81 70 67 67 54 48 47 56 53 70 80 84 76 78 66 55 52 57 84 79 62 34 27 31 36 42 32 32 32 29
69 66 71 71 71 69 95 97 98 100 98 79 75 84 89 88 82 74 65 55 60 63 71 81 84 81 67 68 67 58 51 53 68 82 64 58 27 30 32 27 36 27 31 33
71 75 68 66 66 68 95 98 92 99 98 78 81 78 85 97 82 77 70 68 69 63 87 90 86 69 54 63 56 74 67 76 74 78 62 35 28 34 31 39 35 31 32 33
69 73 70 74 69 68 93 99 91 95 98 85 74 77 88 82 92 95 86 77 81 84 84 85 81 80 69 59 52 53 56 71 72 73 69 52 35 34 40 38 40 38 37 39
72 73 71 71 75 74 86 100 92 89 98 85 82 83 78 66 61 88 89 92 86 76 85 84 82 79 78 66 79 59 54 53 70 52 49 41 43 39 41 42 40 38 38 38
67 68 71 72 71 72 81 99 98 99 98 90 86 68 59 72 68 65 90 89 95 95 94 93 85 78 62 68 63 61 59 58 57 52 48 47 46 42 42 40 41 36 36 39
62 65 67 72 72 72 75 99 98 92 92 98 73 58 70 59 67 65 68 63 84 99 98 100 96 86 60 64 54 59 56 58 58 55 51 47 44 44 41 40 43 38 36 39
60 58 59 64 70 70 85 99 98 93 90 92 84 64 58 57 68 70 66 71 76 92 99 100 96 78 79 76 62 57 56 60 58 61 50 51 43 40 40 45 42 40 39 43
62 60 59 62 66 72 100 100 99 97 93 96 89 63 61 56 63 69 70 72 76 88 98 99 96 89 96 89 68 44 50 53 46 48 47 45 44 37 39 40 41 41 44 38
65 62 61 60 64 92 100 95 94 97 98 97 85 76 57 58 63 76 80 80 90 90 90 99 99 94 97 98 77 52 48 48 49 42 50 47 44 36 38 42 39 51 45 43
70 65 61 64 67 76 97 97 90 96 99 94 90 85 74 64 83 85 87 93 91 90 89 92 93 88 87 96 63 55 46 48 48 46 43 41 38 40 39 42 48 48 48 47
72 70 64 84 92 100 99 84 86 98 98 96 91 78 82 76 90 87 96 92 98 85 92 84 91 82 93 67 61 62 57 55 50 46 44 44 44 39 43 48 48 44 47 53
72 84 99 99 99 88 90 100 99 99 99 97 93 72 72 75 86 89 94 93 87 93 78 81 87 72 51 58 53 46 45 50 48 55 59 60 56 52 49 50 47 44 47 53
100 99 98 95 87 98 100 98 96 96 97 94 80 80 65 73 72 71 75 88 82 88 64 75 64 61 58 51 59 56 55 52 49 45 45 48 46 50 57 58 60 55 54 59
97 96 98 100 99 98 96 95 97 92 87 83 89 87 66 73 86 82 84 75 77 72 90 80 64 56 44 57 55 52 48 46 49 49 47 48 48 50 53 54 58 60 57 66
98 96 96 96 97 97 93 98 95 94 80 84 82 87 82 88 85 84 88 97 81 64 86 79 54 41 41 51 58 60 55 58 57 55 54 55 57 58 61 59 67 71 72 72
97 94 96 93 99 87 78 69 67 72 79 81 63 87 84 82 88 77 85 62 69 67 68 57 45 52 47 46 49 52 53 53 54 55 56 62 70 77 81 84 88 88 88 90
93 83 90 96 72 77 70 66 69 75 67 73 75 84 81 82 74 77 68 74 65 42 46 52 73 62 55 61 57 54 53 63 63 57 58 77 86 86 84 89 90 86 90 91
83 81 89 87 85 95 88 79 76 78 71 74 81 86 89 82 67 75 76 43 38 49 74 80 70 66 66 60 64 64 60 60 62 62 65 70 83 81 76 76 85 90 91 90
87 93 91 83 81 85 85 77 67 76 66 79 81 90 82 76 74 58 40 45 42 62 73 65 60 72 77 67 63 67 71 72 72 72 71 70 73 74 71 70 77 83 88 92

GFSNW_sfc_rhum_285.txt.gz
RH
64 65 68 70 61 64 71 98 99 66 58 72 45 81 42 41 25 22 35 33 18 21 18 19 18 16 15 14 16 20 18 24 34 27 16 14 18 23 29 89 88 47 69 63
65 68 70 69 60 65 55 96 98 66 59 99 95 49 42 35 34 25 30 37 26 21 22 27 20 18 17 18 19 22 21 31 42 30 25 19 24 20 20 29 44 90 80 55
64 66 71 73 64 65 58 97 100 80 80 51 56 54 46 47 34 35 23 32 29 27 27 23 28 21 30 23 19 50 33 22 29 32 24 21 27 22 21 25 50 30 34 24
64 65 68 73 68 72 57 92 88 97 99 90 59 43 38 37 40 30 26 31 31 30 66 31 30 21 34 30 41 30 28 34 25 18 14 14 17 18 21 22 27 28 20 15
64 64 66 73 67 69 77 98 94 75 58 62 56 58 48 35 29 31 32 32 23 28 33 30 38 25 32 31 29 31 28 36 26 70 20 16 17 16 15 18 17 16 11 11
62 64 67 72 67 63 87 68 77 91 61 59 56 67 53 40 31 27 22 24 28 25 28 30 31 32 26 22 31 34 36 50 42 46 23 19 36 21 16 16 15 14 16 11
62 66 69 66 69 73 77 62 71 85 74 61 60 61 55 54 37 39 25 26 32 27 29 28 29 32 31 31 26 25 34 36 45 71 32 70 28 14 13 16 14 11 10 9
62 70 70 70 64 75 93 73 59 80 84 48 51 56 55 44 40 46 33 27 22 30 35 46 89 89 97 95 32 32 26 35 93 88 51 27 17 17 17 18 16 12 12 10
60 65 74 72 66 66 94 92 59 84 90 59 54 53 52 61 63 56 46 34 32 38 40 54 97 76 56 57 44 29 28 32 60 89 79 55 24 12 12 12 30 13 12 13
59 63 69 73 78 72 82 98 78 71 90 37 44 54 80 67 62 79 50 48 50 42 66 98 78 52 28 42 45 54 52 75 93 76 59 30 14 10 12 36 27 12 12 14
61 62 68 72 74 85 87 99 91 87 86 49 36 37 50 48 56 83 98 69 61 66 73 66 63 51 38 35 29 38 41 64 77 63 88 55 16 17 23 22 24 21 19 16
63 63 65 69 71 76 86 100 97 92 100 62 45 44 37 40 44 55 79 94 90 90 72 51 47 46 38 40 51 26 42 36 51 44 44 23 21 17 21 22 23 22 22 20
62 63 62 65 72 73 81 99 98 100 98 66 47 42 34 33 40 41 70 94 99 96 83 87 75 56 34 45 38 39 34 25 33 34 28 24 22 18 18 20 20 19 18 19
66 60 60 62 62 69 74 99 97 93 92 95 53 31 37 30 35 39 44 59 91 93 86 96 93 74 40 48 33 35 34 29 36 32 24 22 21 20 20 20 19 17 16 19
69 67 60 59 59 59 70 90 95 80 88 94 81 42 30 31 38 38 40 45 51 81 93 98 88 61 69 59 49 51 28 34 44 39 24 29 25 26 20 20 20 17 18 18
73 71 65 58 59 55 81 100 92 90 86 96 81 44 36 34 34 39 42 42 43 50 88 82 64 48 84 88 66 38 26 24 26 29 22 22 22 23 20 21 18 16 18 18
73 72 70 59 59 60 98 95 92 87 84 96 77 60 36 34 35 36 38 40 50 52 77 78 58 57 92 99 63 31 27 23 25 25 26 28 21 22 20 20 18 28 20 18
78 76 71 61 58 62 81 76 89 94 100 96 85 66 52 37 59 69 38 57 57 69 68 56 58 52 72 87 40 34 30 27 26 27 25 28 24 22 19 18 19 21 24 23
85 83 71 67 82 100 68 72 90 75 89 93 68 58 72 42 50 53 63 53 82 43 69 60 50 61 82 46 34 30 31 44 39 28 25 25 29 27 23 19 20 22 22 23
80 97 100 100 98 60 70 98 100 100 100 96 79 36 69 49 54 65 66 68 60 68 50 40 60 48 31 28 28 27 27 25 26 34 34 33 31 29 28 24 20 23 23 23
100 100 98 78 71 76 96 97 97 95 97 75 52 47 56 37 68 61 49 64 50 51 35 46 45 38 32 24 25 24 24 26 27 26 28 27 28 31 33 30 28 26 25 28
94 91 88 99 98 93 91 76 72 68 55 45 45 48 36 48 37 66 55 48 37 44 27 43 45 38 27 28 27 30 23 23 24 25 27 26 24 27 32 34 32 29 31 46
99 97 98 88 81 89 76 67 59 58 37 36 35 60 46 47 42 66 61 70 49 27 52 38 29 21 16 22 34 36 30 21 23 23 24 28 29 28 36 34 39 42 47 49
100 94 91 70 89 53 38 36 33 29 29 35 39 60 68 54 64 58 61 41 36 48 44 33 27 19 29 33 33 37 36 36 40 30 27 32 39 46 57 85 85 100 100 97
91 76 78 56 37 37 32 29 30 30 31 38 46 55 59 57 68 51 50 60 51 34 39 29 27 21 24 30 32 29 26 32 37 38 44 55 61 79 68 100 89 78 100 98
66 56 62 45 47 75 64 49 45 36 35 36 44 65 72 84 49 50 62 38 36 31 28 34 24 21 24 31 28 28 27 28 35 41 41 44 54 73 57 64 72 100 100 100
65 77 67 54 55 81 71 49 34 33 41 60 55 68 67 50 56 43 33 40 32 31 36 37 26 25 27 28 29 32 35 34 41 46 48 48 44 49 58 64 62 88 87 100

GFSNW_sfc_rhum_288.txt.gz
RH
64 65 67 70 69 65 66 89 98 76 59 75 63 86 46 42 29 23 21 32 30 19 18 20 20 19 15 16 15 16 18 29 40 25 18 16 18 25 28 97 91 67 77 79
63 63 66 71 70 64 47 91 82 59 76 97 96 53 40 38 33 28 26 29 30 24 22 34 23 21 18 26 19 23 23 41 49 32 24 17 20 22 24 46 57 86 92 74
62 62 64 66 70 63 57 90 99 81 84 57 66 69 48 41 31 38 27 26 25 28 29 24 32 22 23 30 20 53 37 26 38 45 34 24 27 21 21 33 59 47 53 26
63 63 64 67 70 64 61 84 82 97 98 83 64 56 66 43 38 31 30 35 29 32 55 39 30 24 30 27 46 27 28 41 27 26 18 19 20 21 20 22 29 44 31 20
63 61 65 66 66 66 79 99 85 64 57 52 67 62 56 52 37 31 36 36 30 30 35 30 42 24 29 31 29 33 33 50 35 70 18 15 16 17 17 18 18 21 20 16
61 61 67 72 63 64 92 73 58 68 58 53 64 71 51 41 39 31 24 28 31 31 25 28 26 32 32 28 31 42 43 59 54 53 24 23 38 22 15 16 17 17 26 18
60 60 68 74 65 70 92 90 95 90 79 52 52 76 54 61 45 45 28 26 30 24 28 29 29 35 32 28 27 30 42 45 56 86 40 63 29 15 13 15 13 13 13 12
58 60 63 74 68 65 88 91 98 85 79 47 47 56 71 45 43 54 48 37 23 30 35 55 80 98 92 85 40 31 33 44 92 91 62 35 23 18 17 18 18 12 14 13
58 59 61 69 72 68 87 90 93 100 89 57 40 70 50 62 57 63 53 36 36 36 44 70 91 70 53 59 38 26 28 39 67 94 74 61 32 16 14 14 33 14 13 16
61 60 61 65 72 74 87 94 83 100 95 48 39 46 77 66 66 76 75 75 55 48 73 96 80 64 32 42 43 53 57 67 76 81 69 38 17 13 13 36 36 20 17 16
62 63 62 63 69 73 86 94 91 99 100 57 45 36 41 46 64 93 97 95 71 86 82 72 68 66 51 40 28 37 47 66 75 70 77 62 17 14 25 32 34 28 24 24
66 64 63 63 66 70 80 100 91 92 100 80 63 50 42 38 42 90 70 99 100 99 96 63 57 61 48 47 56 29 47 44 60 52 57 33 26 26 32 34 32 29 29 23
66 68 63 61 63 68 77 98 98 99 100 72 57 48 35 33 35 36 73 90 99 96 96 97 84 64 40 51 43 44 52 30 40 43 36 29 26 23 30 27 29 22 20 19
70 69 66 61 60 64 67 95 94 96 99 95 56 31 36 26 31 35 42 56 80 87 81 91 98 82 77 58 43 43 51 48 51 42 30 26 24 23 25 22 21 18 16 18
78 71 69 64 59 61 64 89 91 80 98 94 87 49 37 31 34 36 38 43 52 73 93 96 94 69 94 75 58 58 37 44 62 61 37 37 31 28 25 27 23 20 18 18
77 88 72 67 61 59 80 99 76 74 89 93 81 47 45 30 32 37 39 39 43 45 85 80 62 47 72 90 71 39 32 30 31 39 32 31 33 24 26 25 22 20 21 19
74 87 74 70 67 62 97 86 95 82 88 93 76 60 34 30 32 38 38 39 45 50 80 76 59 51 87 90 67 36 30 28 30 31 35 40 26 32 25 23 21 28 20 21
75 80 74 74 68 60 81 66 78 87 100 92 82 63 60 36 56 70 37 55 54 65 63 56 59 52 65 80 42 35 32 31 30 29 28 35 27 25 23 20 20 22 28 26
76 75 80 84 86 100 67 64 82 78 90 96 71 58 72 63 54 57 66 56 81 46 75 63 52 67 76 48 37 32 30 31 32 36 37 32 34 27 30 29 25 24 26 30
74 90 100 100 96 58 72 95 99 99 99 96 78 44 69 69 60 68 69 68 64 69 55 44 68 56 34 32 30 28 28 27 27 43 56 53 41 30 31 30 28 24 24 30
100 100 99 79 67 82 95 87 90 84 90 74 53 49 59 89 85 71 62 70 57 60 40 51 44 42 35 25 25 25 26 26 27 28 34 34 33 34 36 35 35 34 33 37
94 96 91 92 94 87 82 73 64 65 59 42 45 46 39 72 62 72 66 54 42 40 28 46 42 40 22 24 34 23 25 26 28 25 27 32 30 32 34 34 36 37 39 50
99 100 100 88 86 92 70 68 51 55 36 37 32 60 41 59 48 67 60 61 50 27 56 41 33 24 18 18 19 33 33 36 38 30 26 28 29 32 39 36 43 55 56 59
100 93 91 71 87 56 46 39 34 30 25 34 40 67 66 56 65 57 60 44 37 45 45 34 36 24 21 41 48 33 32 32 32 33 39 52 60 68 66 68 82 100 99 74
98 81 80 59 42 42 37 34 33 33 37 55 40 56 58 58 61 54 49 56 50 32 39 38 43 24 20 22 32 39 39 33 30 29 36 58 65 71 65 82 94 80 100 97
91 64 60 44 52 71 70 55 48 45 92 56 38 61 70 68 57 52 58 43 37 31 36 41 32 24 22 22 25 29 34 31 30 29 30 32 53 67 63 66 71 100 100 100
82 82 66 65 62 77 69 54 42 49 38 57 73 81 65 52 56 42 32 40 38 42 44 40 34 33 25 25 27 28 29 32 35 35 39 40 46 53 54 60 58 98 98 100

GFSNW_sfc_rhum_291.txt.gz
RH
64 62 63 66 70 71 70 91 98 81 85 99 95 99 54 52 42 37 39 31 36 46 42 24 25 29 20 24 18 26 25 48 50 31 25 23 32 36 55 78 65 84 88 82
62 62 62 66 70 70 88 97 96 66 88 100 98 79 65 50 47 45 40 42 35 34 47 50 30 26 30 33 33 26 31 58 66 45 35 29 34 32 46 70 89 89 82 78
64 63 62 65 68 69 88 93 95 95 94 88 90 98 81 65 42 40 37 42 42 45 47 46 43 35 30 40 39 60 43 42 56 55 43 37 37 34 43 62 84 75 78 56
63 63 64 67 68 67 91 97 93 99 99 97 94 82 92 90 64 39 36 45 43 44 63 54 49 36 38 36 53 43 41 48 39 39 28 26 29 27 30 40 54 58 51 47
61 62 62 69 69 66 96 99 98 95 83 59 67 86 85 66 57 57 52 47 41 42 50 52 65 40 43 39 40 44 43 58 46 64 34 28 30 26 24 27 32 38 36 35
60 60 60 67 70 72 98 92 94 99 79 74 68 79 98 95 67 49 40 40 48 46 41 49 48 52 48 47 43 49 52 65 68 62 44 42 50 35 26 25 24 25 39 29
58 59 60 62 71 71 96 95 99 100 94 77 75 63 75 75 91 76 58 54 54 39 37 41 51 49 52 52 43 45 56 61 76 85 54 70 41 25 23 24 20 22 19 23
59 58 60 61 68 71 95 91 99 100 98 74 60 57 76 67 67 59 61 54 48 48 45 71 82 88 72 72 52 47 46 69 84 80 83 52 37 26 26 27 28 19 21 19
61 60 60 61 64 71 93 96 93 100 99 88 51 62 52 75 94 84 65 58 67 55 63 86 95 94 82 71 54 39 40 59 74 92 80 80 42 29 21 25 43 24 21 21
62 62 61 61 63 66 91 96 90 100 99 82 74 91 90 71 82 96 89 91 89 73 95 93 96 90 49 66 60 56 75 81 78 96 88 66 33 25 24 44 49 26 31 28
64 64 64 62 62 64 88 92 93 100 99 82 68 66 86 77 83 98 98 92 93 99 94 92 92 93 71 60 46 47 67 81 88 88 85 76 28 25 32 38 38 30 33 39
71 65 67 65 62 63 75 96 94 96 100 95 80 72 66 67 62 82 90 100 100 100 98 95 88 88 74 63 79 40 57 62 79 64 71 49 34 34 40 35 33 36 36 34
76 73 68 68 63 61 72 95 92 96 99 93 87 75 53 47 51 52 91 100 100 100 99 99 99 94 71 75 58 60 66 57 72 58 54 42 34 33 34 32 32 30 27 28
69 75 74 70 67 61 62 96 97 99 99 99 86 51 58 56 47 51 55 80 94 93 99 99 99 99 97 95 78 75 72 64 74 74 54 43 36 38 35 30 31 28 26 26
69 73 80 75 70 62 73 94 95 93 98 98 94 62 48 47 52 46 49 75 88 98 99 99 98 95 96 97 88 86 59 88 91 93 59 59 56 52 39 34 28 28 24 27
74 72 75 80 74 64 91 96 95 92 94 100 98 77 58 50 57 52 58 61 66 71 95 98 86 65 87 99 98 54 57 49 60 70 55 58 55 42 41 34 30 28 32 29
87 87 76 78 86 84 99 96 95 89 94 100 98 93 58 48 54 70 68 59 73 77 95 96 80 77 94 93 94 51 46 48 41 38 43 57 52 48 35 36 31 35 29 31
84 77 74 80 78 77 89 78 81 88 99 100 97 91 79 59 90 93 71 78 77 85 86 84 88 74 89 99 66 45 39 37 42 43 44 48 45 43 37 35 37 36 33 32
79 76 77 92 98 100 88 62 74 97 96 98 97 93 91 88 86 82 90 81 94 78 95 93 76 93 93 72 56 44 38 40 42 37 45 57 57 51 41 38 42 40 38 38
78 90 100 99 98 64 74 95 99 100 100 99 98 67 90 85 96 92 92 93 94 94 86 79 93 86 49 42 37 35 35 34 35 44 51 49 61 55 51 42 37 40 44 46
100 100 100 96 70 93 96 98 98 96 98 95 90 72 84 95 96 95 94 95 93 90 72 84 87 74 56 42 39 34 32 30 30 32 36 38 42 49 50 49 48 48 44 47
94 95 98 99 97 95 94 95 94 91 87 80 79 82 65 92 89 95 98 90 80 69 73 84 78 60 38 28 33 40 41 34 32 42 46 45 32 35 48 50 46 51 59 59
99 100 99 98 96 98 93 93 85 90 69 66 64 86 75 85 85 92 90 80 80 55 81 64 48 40 29 49 53 41 46 46 47 43 46 54 49 60 60 63 68 70 67 66
99 98 97 94 97 90 76 59 56 54 49 60 81 92 87 95 91 86 78 75 79 75 64 47 56 46 41 45 62 56 60 60 50 40 46 55 63 67 71 73 82 98 83 70
97 98 90 79 72 71 65 60 57 52 62 88 87 92 95 89 84 88 78 79 74 60 61 57 61 38 40 38 55 60 62 59 56 43 45 51 56 63 66 74 74 77 95 95
91 93 93 84 77 89 88 81 72 86 95 84 93 93 91 86 79 77 81 61 58 56 52 71 61 41 45 38 39 49 53 50 48 46 46 47 56 63 66 68 74 84 93 100
83 92 95 90 94 88 81 70 68 86 92 94 98 92 76 88 88 63 58 65 55 59 65 69 56 48 46 47 44 45 45 46 48 49 51 56 55 61 66 74 72 76 81 96

GFSNW_sfc_rhum_297.txt.gz
RH
62 63 64 65 66 69 79 96 94 74 87 98 99 98 78 62 54 50 48 54 57 61 60 56 41 35 27 27 25 28 35 46 50 34 29 27 38 46 54 77 68 85 81 70
61 62 63 61 66 69 95 100 98 69 92 99 99 93 87 72 68 60 55 52 55 49 59 64 56 49 32 38 29 36 35 54 63 44 39 36 39 50 53 64 75 78 75 72
58 61 60 60 65 69 96 98 96 92 98 97 84 90 82 82 67 71 60 52 48 46 62 54 59 56 43 43 32 53 44 54 41 58 43 41 40 51 54 49 68 68 68 48
57 58 60 60 64 70 93 98 95 98 98 93 89 76 82 90 89 76 71 62 59 65 70 64 66 62 57 44 49 52 40 47 50 42 32 35 36 49 56 48 52 50 53 45
58 60 59 60 63 72 97 98 99 89 84 90 83 77 91 84 80 70 79 86 81 68 67 68 77 60 58 65 54 48 50 45 56 62 40 33 36 42 55 47 52 48 52 47
60 59 59 59 61 78 98 94 94 99 86 87 85 84 84 84 73 59 66 92 97 79 70 66 61 59 59 58 60 60 52 68 67 61 48 42 54 46 52 49 52 45 60 45
57 58 60 60 59 74 96 94 98 99 95 96 85 78 67 71 75 79 64 84 99 69 62 69 56 56 57 59 61 59 60 61 71 79 55 68 46 36 30 30 34 46 41 36
64 60 61 62 59 60 94 97 98 95 97 86 75 80 70 78 72 74 71 74 60 58 83 81 76 85 75 75 57 53 60 70 88 80 81 54 41 37 39 36 34 32 36 36
72 70 67 63 61 59 90 97 97 100 99 88 74 80 86 93 94 88 76 66 62 82 79 91 90 89 75 73 57 53 62 62 72 91 71 70 47 36 30 28 49 32 30 34
72 71 69 68 66 62 84 92 95 100 98 88 87 93 92 85 93 95 88 79 94 80 99 98 95 91 69 74 64 69 80 85 82 94 79 59 46 37 29 46 48 32 31 30
75 72 73 75 72 68 82 90 90 99 99 91 81 72 91 92 88 99 87 86 88 96 96 97 98 96 76 70 58 63 67 78 89 88 86 65 46 35 39 42 44 36 35 33
71 68 72 70 73 70 72 95 94 96 100 92 87 81 77 73 68 84 89 89 97 98 97 95 96 97 90 76 81 53 73 64 80 71 72 52 48 40 38 41 32 36 35 36
65 67 70 72 72 73 75 92 93 98 100 96 96 86 65 77 81 71 91 97 93 97 93 97 97 97 97 92 77 79 69 75 67 64 60 62 55 56 54 50 44 36 34 33
65 66 67 68 71 64 74 97 96 98 99 98 88 63 71 60 76 82 75 76 96 94 98 99 98 96 97 95 98 99 73 78 73 74 64 64 65 69 66 57 51 42 32 33
71 69 68 70 70 71 84 98 97 93 97 99 97 78 60 58 65 68 85 83 95 99 99 98 98 93 96 93 95 98 81 84 92 90 80 84 76 74 63 58 54 53 44 32
75 73 74 76 88 72 99 99 95 96 97 99 99 82 74 62 58 69 84 85 92 91 97 98 93 75 86 98 95 92 61 55 72 69 54 65 71 72 66 61 58 52 54 37
76 72 74 79 84 94 99 95 86 92 94 99 97 96 75 73 73 91 89 81 82 84 97 98 88 82 95 99 91 68 72 67 55 54 59 66 64 72 70 63 58 58 49 43
81 70 73 74 84 92 99 98 88 92 98 98 99 94 85 78 97 96 96 91 92 94 87 93 96 85 93 96 70 57 55 70 59 44 46 54 46 58 71 68 67 66 67 55
70 72 76 95 99 100 92 79 82 97 94 98 99 99 92 80 98 99 98 98 97 90 96 95 86 93 95 70 62 56 54 56 50 46 45 38 49 45 76 77 79 80 71 69
79 98 100 98 99 78 84 97 98 96 99 99 98 91 98 86 97 96 99 98 97 95 86 86 96 88 57 54 56 51 51 52 43 47 47 47 47 48 54 82 81 79 74 68
100 98 99 100 86 97 97 95 91 98 99 99 95 89 89 84 96 95 98 98 96 95 79 90 92 87 70 53 50 45 43 41 43 44 45 45 50 48 53 75 74 64 68 69
91 95 98 100 98 98 96 94 95 94 91 89 96 95 88 84 95 96 97 99 96 86 89 93 88 73 54 44 44 46 51 53 53 50 48 53 58 62 57 67 68 63 64 71
97 97 98 96 96 98 100 100 96 97 91 86 91 94 88 95 96 97 98 99 93 72 93 71 57 45 38 48 64 62 59 58 58 58 63 60 58 59 63 64 70 68 70 72
96 98 100 98 100 94 81 71 69 74 73 71 87 99 97 96 97 90 85 78 80 81 74 51 55 45 49 53 61 65 60 52 51 52 54 55 59 60 68 72 85 81 78 75
97 96 98 95 80 83 82 78 72 64 63 84 96 97 94 95 94 90 80 81 86 72 72 58 64 48 47 48 59 64 65 62 58 53 56 57 61 62 57 66 66 66 85 79
92 94 98 94 91 93 95 89 82 78 92 92 94 98 100 96 88 84 84 68 74 66 64 66 68 57 55 52 51 57 60 60 63 62 54 55 58 62 63 69 69 83 87 87
92 99 98 96 95 95 90 85 77 87 90 94 95 98 92 92 92 79 76 80 58 63 64 73 69 58 59 60 62 60 61 70 61 58 65 70 75 78 75 69 71 79 77 86